This is the latest recevied weather packets stored in our database for station/object KI5NXU. If no packets are shown the sender has not sent any weather packets the latest 10 day(s).
| Time | Temp. | Humidity | Pressure | Rain* | Wind** | Luminosity | Snow |
|---|---|---|---|---|---|---|---|
| 1778109076 | 18.33° C | 65% | 1013.5 hPa | 0 mm | - | 140 W/m² | - |
| 1778108772 | 18.33° C | 65% | 1013.3 hPa | 0 mm | - | 155 W/m² | - |
| 1778108470 | 18.33° C | 64% | 1013.4 hPa | 0 mm | - | 193 W/m² | - |
| 1778108166 | 18.33° C | 65% | 1013 hPa | 0 mm | - | 167 W/m² | - |
| 1778107862 | 18.89° C | 65% | 1012.9 hPa | 0 mm | - | 153 W/m² | - |
| 1778107559 | 18.89° C | 65% | 1012.8 hPa | 0 mm | - | 177 W/m² | - |
| 1778107256 | 18.89° C | 65% | 1012.8 hPa | 0 mm | - | 196 W/m² | - |
| 1778106952 | 18.89° C | 65% | 1012.9 hPa | 0 mm | - | 187 W/m² | - |
| 1778106648 | 18.89° C | 65% | 1012.9 hPa | 0 mm | - | 240 W/m² | - |
| 1778106345 | 18.89° C | 64% | 1012.9 hPa | 0 mm | - | 218 W/m² | - |
| 1778106041 | 18.89° C | 64% | 1012.9 hPa | 0 mm | - | 226 W/m² | - |
| 1778105739 | 19.44° C | 64% | 1012.8 hPa | 0 mm | - | 287 W/m² | - |
| 1778105437 | 20° C | 63% | 1012.7 hPa | 0 mm | - | 221 W/m² | - |
| 1778105132 | 20° C | 62% | 1012.8 hPa | 0 mm | - | 341 W/m² | - |
| 1778104828 | 20° C | 62% | 1012.7 hPa | 0 mm | - | 445 W/m² | - |
| 1778104526 | 20° C | 61% | 1012.7 hPa | 0 mm | - | 235 W/m² | - |
| 1778104221 | 20° C | 61% | 1012.7 hPa | 0 mm | - | 319 W/m² | - |
| 1778103918 | 20.56° C | 61% | 1012.7 hPa | 0 mm | - | 340 W/m² | - |
| 1778103615 | 20.56° C | 59% | 1012.7 hPa | 0 mm | - | 373 W/m² | - |
| 1778103313 | 20.56° C | 60% | 1012.6 hPa | 0 mm | - | 538 W/m² | - |
| 1778103010 | 21.11° C | 59% | 1012.5 hPa | 0 mm | - | 392 W/m² | - |
| 1778102706 | 21.11° C | 60% | 1012.6 hPa | 0 mm | - | 363 W/m² | - |
| 1778102401 | 20.56° C | 61% | 1012.7 hPa | 0 mm | - | 327 W/m² | - |
| 1778102097 | 20.56° C | 62% | 1012.7 hPa | 0 mm | - | 498 W/m² | - |
| 1778101789 | 20.56° C | 60% | 1012.6 hPa | 0 mm | - | 428 W/m² | - |
* Rain latest hour (hover to see other rain measurements)
** Current wind speed in m/s (hover to see current wind gust speed)